This is the latest recevied weather packets stored in our database for station/object K6HFP. If no packets are shown the sender has not sent any weather packets the latest 10 day(s).
| Time | Temp. | Humidity | Pressure | Rain* | Wind** | Luminosity | Snow |
|---|---|---|---|---|---|---|---|
| 1777943522 | 10.56° C | 94% | 1012.9 hPa | 0 mm | - | 18 W/m² | - |
| 1777943217 | 10.56° C | 94% | 1013 hPa | 0 mm | - | 14 W/m² | - |
| 1777942914 | 10.56° C | 94% | 1012.8 hPa | 0 mm | - | 15 W/m² | - |
| 1777942610 | 10.56° C | 94% | 1012.9 hPa | 0 mm | - | 17 W/m² | - |
| 1777942307 | 10.56° C | 93% | 1012.6 hPa | 1.78 mm | - | 25 W/m² | - |
| 1777942004 | 10.56° C | 93% | 1012.5 hPa | 1.78 mm | - | 25 W/m² | - |
| 1777941700 | 10.56° C | 92% | 1012.6 hPa | 0 mm | - | 31 W/m² | - |
| 1777941398 | 10.56° C | 91% | 1013.1 hPa | 0 mm | - | 15 W/m² | - |
| 1777941095 | 10.56° C | 90% | 1013.2 hPa | 0 mm | - | 11 W/m² | - |
| 1777940791 | 10.56° C | 91% | 1013.1 hPa | 0 mm | - | 16 W/m² | - |
| 1777940490 | 10.56° C | 91% | 1013.3 hPa | 0 mm | - | 17 W/m² | - |
| 1777940186 | 10.56° C | 91% | 1013 hPa | 0 mm | - | 30 W/m² | - |
| 1777939884 | 10.56° C | 91% | 1013.2 hPa | 0 mm | - | 20 W/m² | - |
| 1777939581 | 10.56° C | 90% | 1013.1 hPa | 1.27 mm | - | 23 W/m² | - |
| 1777939279 | 11.11° C | 90% | 1013.1 hPa | 1.27 mm | - | 25 W/m² | - |
| 1777938975 | 11.11° C | 89% | 1013.3 hPa | 0 mm | - | 25 W/m² | - |
| 1777938672 | 11.67° C | 88% | 1012.9 hPa | 1.78 mm | - | 22 W/m² | - |
| 1777938369 | 11.67° C | 87% | 1013.1 hPa | 1.78 mm | - | 43 W/m² | - |
| 1777938066 | 11.67° C | 84% | 1013.1 hPa | 0 mm | - | 46 W/m² | - |
| 1777937761 | 11.67° C | 82% | 1013 hPa | 0 mm | - | 29 W/m² | - |
| 1777937458 | 12.22° C | 81% | 1013.4 hPa | 0 mm | - | 23 W/m² | - |
| 1777937155 | 12.22° C | 78% | 1013.2 hPa | 0 mm | - | 26 W/m² | - |
| 1777936853 | 12.22° C | 80% | 1013.4 hPa | 0 mm | - | 35 W/m² | - |
| 1777936549 | 12.78° C | 79% | 1013.3 hPa | 0 mm | - | 42 W/m² | - |
| 1777936245 | 12.78° C | 77% | 1013 hPa | 0 mm | - | 60 W/m² | - |
* Rain latest hour (hover to see other rain measurements)
** Current wind speed in m/s (hover to see current wind gust speed)